Location: Ferma
(41.9500°N, 44.5167°E)
Time: 19:43:18
(UTC+00:00)

BREEZE-M DEB (TANK) - Pass Details

Date: 07 June 2022
Orbit: 338 x 14778 km, 49.6° (Epoch: 25 June)

Event Time Altitude Azimuth Distance (km) Brightness Sun altitude
Rises 17:43:35 0° 319° (NW) 18,670 13.0 -10.8°
Reaches altitude 10° 18:11:29 10° 313° (NW) 18,944 12.2 -14.3°
Maximum altitude 19:18:30 21° 288° (WNW) 15,506 10.8 -21.0°
Drops below altitude 10° 19:59:56 10° 250° (WSW) 10,514 9.4 -23.7°
Sets 20:10:32 0° 233° (SW) 9,291 9.0 -24.2°
